Location: Nachod
(50.4170°N, 16.1670°E)
Time: 15:27:34
(UTC+01:00)

N. Korean satellite - Visible Passes

Search period start: 14 November 2019 00:00
Search period end: 24 November 2019 00:00
Orbit: 456 x 506 km, 97.2° (Epoch: 13 November)

Date Brightness Start Highest point End Pass type
(mag) Time Alt. Az. Time Alt. Az. Time Alt. Az.
14 Nov 10.3 04:36:21 10° ENE 04:37:14 11° E 04:38:06 10° E visible
14 Nov 6.6 06:07:24 10° N 06:11:08 77° WNW 06:14:50 10° SSW visible
14 Nov 6.6 16:47:04 10° SSE 16:50:40 82° ENE 16:54:22 10° N visible
15 Nov 7.5 05:42:04 10° NNE 05:45:45 55° E 05:49:22 10° S visible
15 Nov 9.7 17:56:25 10° SW 17:58:57 18° W 18:01:32 10° NW visible
16 Nov 8.8 05:16:58 10° NNE 05:20:16 29° E 05:23:30 10° SSE visible
16 Nov 8.6 17:30:06 10° SSW 17:33:23 32° W 17:36:45 10° NNW visible
17 Nov 9.8 04:52:17 10° NE 04:54:41 16° E 04:57:02 10° SE visible
17 Nov 6.8 06:24:44 10° N 06:28:20 48° WNW 06:31:55 10° SSW visible
17 Nov 7.2 17:04:18 10° S 17:07:55 63° W 17:11:36 10° NNW visible
18 Nov 6.7 05:59:15 10° NNE 06:03:01 87° ESE 06:06:42 10° SSW visible
18 Nov 6.6 16:38:55 10° SSE 16:42:32 66° ENE 16:46:13 10° N visible
18 Nov 10.2 18:14:55 10° WSW 18:16:22 12° W 18:17:50 10° WNW visible
19 Nov 7.9 05:33:59 10° NNE 05:37:35 44° E 05:41:06 10° S visible
19 Nov 9.4 17:47:51 10° SW 17:50:44 22° W 17:53:39 10° NW visible
20 Nov 9.2 05:08:59 10° NE 05:12:03 24° E 05:15:04 10° SSE visible
20 Nov 7.4 06:42:09 10° N 06:45:29 32° WNW 06:48:46 10° SW visible
20 Nov 8.2 17:21:43 10° SSW 17:25:11 39° W 17:28:42 10° NNW visible
21 Nov 10.1 04:44:33 10° ENE 04:46:25 13° E 04:48:15 10° ESE visible
21 Nov 6.6 06:16:32 10° N 06:20:12 59° WNW 06:23:49 10° SSW visible
21 Nov 6.8 16:56:04 10° S 16:59:43 78° WSW 17:03:28 10° NNW visible
22 Nov 6.9 05:51:06 10° NNE 05:54:49 71° ESE 05:58:28 10° S visible
22 Nov 6.8 16:30:47 10° SSE 16:34:21 54° ENE 16:38:00 10° N visible
22 Nov 10.0 18:05:58 10° SW 18:08:05 15° W 18:10:13 10° NW visible
23 Nov 8.3 05:25:54 10° NNE 05:29:21 36° E 05:32:44 10° SSE visible
23 Nov 9.1 17:39:20 10° SSW 17:42:28 26° W 17:45:39 10° NW visible
